Find Starlink 32346

NORAD ID: 61849 Int'l Des: 2024-202 Owner: SPXS Country: US Constellation: starlink operational
LEOCIRCULAR

实时位置

正在加载3D地球...

关于 Starlink 32346

正在加载描述...

即将过境

Passes for default location (London). Set your location on the main map for personalized predictions.

高度历史

Loading altitude history...

两行轨道根数

1 61849U 24202E 26126.41493936 -.00001176 00000-0 -33238-4 0 9994
2 61849 42.9954 260.9368 0000839 238.7653 121.3116 15.27567078 84286
Epoch: May 6, 2026 • Age: 17 hours

当前状态

高度 483.3 km
速度 7.63 km/s
星下点 -1.03°S, 17.42°W
发射日期 Nov 7, 2024
运行时间 1.4 years
类型 internet

技术详情

分类 Payload
质量 730.00 kg
干质量 700.00 kg
总质量 730.00 kg
长度 0.30 m
直径 4.10 m
跨度 29.00 m
形状 Box + pan
制造商 SPXS
平台类型 Starlink V2M
阶段状态 In Orbit
所有者/国家 SPXS/US

Most Searched